Location: Lane
(33.5226°N, 79.8788°W)
Time: 10:38:19
(UTC+00:00)

Altair - Pass Details

Date: 11 October 2022
Orbit: 1501 x 1682 km, 47.2° (Epoch: 30 November)

Event Time Altitude Azimuth Distance (km) Brightness Sun altitude
Rises 15:24:26 0° 303° (WNW) 4,895 9.7 42.7°
Reaches altitude 10° 15:27:40 10° 299° (WNW) 3,921 9.3 43.1°
Maximum altitude 15:37:16 51° 227° (SW) 2,043 8.9 44.2°
Drops below altitude 10° 15:46:52 10° 155° (SSE) 3,922 10.7 45.2°
Sets 15:50:08 0° 151° (SSE) 4,896 10.9 45.5°
